[Iaude] MPEC B175: 2024 BA4 [a=1.50,e=0.38,i=19.0,H=26.7]
    mpec at marsden.cfa.harvard.edu 
    mpec at marsden.cfa.harvard.edu
       
    Wed Jan 31 08:04:50 EST 2024
    
    
  
M.P.E.C. 2024-B175                             Issued 2024 January 31, 13:02 UT
     The Minor Planet Electronic Circulars contain information on unusual
         minor planets, routine data on comets and natural satellites,
         and occasional editorial announcements.  They are published
    on behalf of Division F of the International Astronomical Union by the
          Minor Planet Center, Smithsonian Astrophysical Observatory,
                          Cambridge, MA 02138, U.S.A.
			  
             Prepared using the Tamkin Foundation Computer Network
                              MPC at CFA.HARVARD.EDU
            URL https://www.minorplanetcenter.net/    ISSN 1523-6714
                                    2024 BA4                                    
Observations:
     K24B04A*1C2024 01 30.39784109 03 16.492+35 00 52.78         20.32GVEB175G96
     K24B04A 1C2024 01 30.40315809 03 13.900+34 58 36.77         20.46GVEB175G96
     K24B04A 1C2024 01 30.40850309 03 11.074+34 56 12.37         20.78GVEB175G96
     K24B04A 1C2024 01 30.42647209 03 02.027+34 48 15.34         20.20GVEB175G96
     K24B04A 1C2024 01 30.42671709 03 01.904+34 48 09.04         20.04GVEB175G96
     K24B04A 1C2024 01 30.42695809 03 01.789+34 48 02.27         20.09GVEB175G96
     K24B04A 1C2024 01 30.46688809 02 41.914+34 30 03.53         20.67GVEB175G96
     K24B04A 1C2024 01 30.46712909 02 41.744+34 29 57.62               VEB175G96
     K24B04A 1C2024 01 30.46737009 02 41.669+34 29 51.07         20.72GVEB175G96
     K24B04A KB2024 01 30.83046 09 00 25.97 +31 37 53.5                XEB175M45
     K24B04A KB2024 01 30.84011 09 00 21.02 +31 33 05.9                XEB175M45
     K24B04A KB2024 01 30.89007 08 59 57.37 +31 07 54.8                ZEB175106
     K24B04A KB2024 01 30.89359 08 59 55.59 +31 06 08.1                ZEB175106
     K24B04A KB2024 01 30.89697 08 59 53.71 +31 04 24.6                ZEB175106
     K24B04A KB2024 01 30.90022 08 59 52.08 +31 02 46.3                ZEB175106
     K24B04A KB2024 01 31.02321208 58 49.20 +29 58 52.8          19.3 GXEB175958
     K24B04A KB2024 01 31.02820008 58 46.50 +29 56 11.9          19.5 GXEB175958
     K24B04A KB2024 01 31.03318808 58 43.79 +29 53 33.3          19.3 GXEB175958
     K24B04A KB2024 01 31.04816508 58 33.32 +29 45 16.9          20.2 GVEB175204
     K24B04A KB2024 01 31.06155508 58 26.03 +29 38 01.2                VEB175204
     K24B04A KB2024 01 31.07501808 58 18.76 +29 30 40.8                VEB175204
     K24B04A KB2024 01 31.27769 08 56 51.142+27 37 57.25         19.8 GXEB175H36
     K24B04A KB2024 01 31.28189 08 56 48.737+27 35 31.20         19.5 GXEB175H36
     K24B04A KB2024 01 31.28609 08 56 46.313+27 33 05.22         19.4 GXEB175H36
Observer details:
106 Crni Vrh.  Observer H. Mikuz.  0.60-m f/3.3 reflector + CMO.
204 Schiaparelli Observatory.  Observer L. Buzzi.  0.84-m f/3.5 reflector +
    CMO.
958 Observatoire de Dax.  Observer P. Dupouy.  0.50-m f/4.5 Reflector + CMO.
G96 Mt. Lemmon Survey.  Observer D. Rankin.  Measurers T. Beuden, V. F.
    Carvajal, D. Fay, J. B. Fazekas, D. C. Fuls, A. R. Gibbs, A. D. Grauer, H.
    Groeller, J. K. Hogan, R. A. Kowalski, S. M. Larson, G. J. Leonard, D.
    Rankin, R. L. Seaman, F. C. Shelly, K. W. Wierzchos.  1.5-m reflector +
    10K CCD.
H36 Sandlot Observatory, Scranton.  Observer G. Hug.  0.56-m f/4.8 reflector +
    CMO.
M45 Starhopper Observatory, Sfantu Gheorghe.  Observer F. Ursache.  0.41-m
    f/7.5 reflector + CMO.
Orbital elements:
2024 BA4                                                 Earth MOID = 0.0224 AU
Epoch 2023 Sept. 13.0 TT = JDT 2460200.5                Veres                   
M 264.93928              (2000.0)            P               Q                  
n   0.53577766     Peri.  223.84798     -0.96815938     -0.05330449             
a   1.5013421      Node   311.39841     +0.18885520     -0.79687301             
e   0.3764863      Incl.   19.03033     -0.16432021     -0.60179069             
P   1.84           H   26.77          G   0.15           U   8                  
Residuals in seconds of arc
240130 G96  1.3-  3.1-    240130 G96  0.0   0.7+    240131 958  0.0   1.3-
240130 G96  0.3+  1.5+    240130 M45  0.6+  1.7+    240131 958  0.5+  0.1+
240130 G96  0.9-  1.3-    240130 M45  0.6+  0.6+    240131 204  0.3+  0.3+
240130 G96  0.1+  0.6+    240130 106  0.3+  0.6+    240131 204  0.0   0.1+
240130 G96  0.1+  0.8+    240130 106  1.1+  0.7+    240131 204  0.0   0.1-
240130 G96  0.2+  0.5+    240130 106  0.2-  0.2-    240131 H36  0.3-  0.1+
240130 G96  0.1+  0.0     240130 106  0.9+  0.3+    240131 H36  0.1-  0.0
240130 G96  0.5-  0.7+    240131 958  0.6-  0.1-    240131 H36  0.1-  0.2+
Ephemeris:
2024 BA4                 a,e,i = 1.50, 0.38, 19                  q = 0.9361
Date    TT    R. A. (2000) Decl.     Delta      r    Elong.  Phase     V
2024 01 01    09 42 50.6 +64 15 31   0.2586  1.1648   129.4    40.7    25.8
...
2024 01 16    09 47 31.1 +62 28 37   0.1409  1.0861   133.9    40.8    24.3
...
2024 01 24    09 33 18.3 +56 25 48   0.08084 1.0481   140.7    36.5    22.9
...
2024 01 30    09 06 05.9 +37 43 34   0.03948 1.0221   159.8    19.5    20.8
2024 01 31    08 59 00.7 +30 12 38   0.03371 1.0180   167.3    12.3    20.2
2024 02 01    08 50 49.5 +19 50 10   0.02880 1.0140   177.4     2.6    19.4
...
2024 02 07    07 21 12.3 -63 44 20   0.03705 0.9916    97.4    80.5    22.4
...
2024 02 15    02 38 22.7 -80 49 16   0.09094 0.9669    74.3   100.5    25.1
...
2024 03 01    23 36 09.2 -76 29 28   0.1960  0.9392    69.2    99.6    26.7
M. P. C. Staff               (C) Copyright 2024 MPC           M.P.E.C. 2024-B175
    
    
More information about the Iaude
mailing list